Location: Unspecified
(0.0000°N, 0.0000°E)
Time: 01:15:12
(UTC+00:00)

Altair - Visible Passes

Search period start: 29 November 2014 00:00
Search period end: 09 December 2014 00:00
Orbit: 1501 x 1683 km, 47.2° (Epoch: 27 November)

Date Brightness Start Highest point End Pass type
(mag) Time Alt. Az. Time Alt. Az. Time Alt. Az.
29 Nov 7.5 02:54:29 79° ESE 02:54:29 79° ESE 03:03:59 10° SE visible
29 Nov 8.9 04:52:32 12° W 04:58:49 21° SW 05:05:54 10° S visible
30 Nov 8.0 02:31:02 57° ESE 02:31:02 57° ESE 02:38:46 10° SE visible
30 Nov 8.8 04:29:05 18° W 04:33:34 24° SW 04:41:12 10° S visible
01 Dec 8.5 02:07:32 41° ESE 02:07:32 41° ESE 02:13:31 10° SE visible
01 Dec 8.6 04:05:34 24° WSW 04:08:20 27° SW 04:16:26 10° S visible
02 Dec 8.9 01:43:58 29° ESE 01:43:58 29° ESE 01:48:13 10° SE visible
02 Dec 8.4 03:42:00 30° WSW 03:43:07 30° SW 03:51:36 10° S visible
03 Dec 9.3 01:20:20 20° ESE 01:20:20 20° ESE 01:22:53 10° SE visible
03 Dec 8.4 03:18:22 34° SW 03:18:22 34° SW 03:26:44 10° SSE visible
04 Dec 9.7 00:56:40 13° ESE 00:56:40 13° ESE 00:57:31 10° ESE visible
04 Dec 8.4 02:54:41 35° SSW 02:54:41 35° SSW 03:01:49 10° SSE visible
05 Dec 8.6 02:30:57 33° S 02:30:57 33° S 02:36:52 10° SSE visible
06 Dec 8.8 02:07:09 29° S 02:07:09 29° S 02:11:53 10° SSE visible
07 Dec 9.1 01:43:18 24° SSE 01:43:18 24° SSE 01:46:52 10° SSE visible
08 Dec 9.4 01:19:24 20° SSE 01:19:24 20° SSE 01:21:49 10° SSE visible
